User: anonymous   Login
Location: Auckland
(36.8670°S, 174.7670°E)
Time: 23:44:51
(UTC+13:00)
Language:

NOSS 2-1 (E) - Orbit

View from above orbital plane
View from above orbital plane
View from above satellite
View from above satellite

Ground track
Ground track

The orbit data is extracted from the following two-line orbital elements,

1 20642U 90050E   19277.79847500 0.00000350  00000-0  60404-4 0    03
2 20642  63.3264 176.9403 0856068  39.8493 320.1507 13.41921751    01
Epoch (UTC): 04 October 2019 19:09:48
Eccentricity: 0.0856068
inclination: 63.3264°
perigee height: 462 km
apogee height: 1742 km
right ascension of ascending node: 176.9403°
argument of perigee: 39.8493°
revolutions per day: 13.41921751
mean anomaly at epoch: 320.1507°
orbit number at epoch: 0

The dashed part of the orbit path shows where the satellite is in the earth's shadow,  

DLR